Meath Environmental Platform

Observations for Trim Patrick St

Time AQI Temp °C Hum % Pres Pa CO μg/m³ H₂S μg/m³ NO μg/m³ NO₂ μg/m³ O₃ μg/m³ SO₂ μg/m³ PM1 μg/m³ PM2.5 μg/m³ PM10 μg/m³
Saturday 1 August 2026
15:51 2 26.6 35 68,983 0 5.52 1.67 16.68 84.06 9.75 7.14 15.28 16.81
15:50 2 26.4 35 68,979 0 3.8 1.63 11.76 79.38 10.22 8 16.1 17.71
15:49 2 26.2 35 68,977 0 4.16 1.44 13.77 89.12 10.63 8 17.66 19.42
15:47 2 26.1 36 68,975 0 4.6 1.64 12.35 91.68 10.01 3.71 10.5 11.55
15:45 2 26 35 68,975 0 1.11 1.8 10.39 79.79 9.97 4.57 12.12 13.33
15:44 2 26 34 68,979 0 1.19 2.04 10.67 70.24 9.72 4.57 10.59 11.65
15:43 2 26 35 68,983 0 0 1.86 10.26 72.17 10.04 2.86 9.72 10.69
15:39 2 26 35 68,965 0 5.83 1.86 11.15 88.72 10.3 7.14 15.31 16.84
15:38 2 26 35 68,961 0 5.8 1.87 13.25 82.79 9.75 5.43 13.74 15.12
15:37 2 26.1 35 68,989 0 6.65 1.71 12.74 85.67 10.72 5.43 12.95 14.24
15:36 2 26.1 35 68,967 0 1.29 1.57 11.39 90.25 9.92 5.43 11.35 12.48
15:35 2 26.1 35 68,995 0 2.07 1.61 10.89 87.3 9.75 3.71 9.74 10.72
15:34 2 26.1 35 68,977 0 0.6 1.56 10.36 70.35 10.22 3.71 8.98 9.87
15:33 2 26.2 34 68,975 0 3.52 1.39 12.3 90.38 10.34 3.71 9.83 10.81
15:32 2 26.2 35 68,975 0 0.04 1.39 10.13 79.03 10.7 2.86 8.96 9.85
15:31 2 26.2 34 68,979 0 0 1.52 11.17 64.64 8.84 2.86 8.21 9.03
15:30 2 26.3 34 68,979 0 1.87 1.48 11.57 82.87 10.47 2 8.19 9.01
15:29 2 26.4 34 68,981 0 0 1.51 11.42 68.86 9.88 2 8.23 9.05
15:28 2 26.4 34 68,981 0 4.28 1.78 13.32 87.77 10.78 2 8.99 9.89
15:27 2 26.4 34 68,987 0 0.98 1.67 11.42 82.1 10.19 2.86 8.23 9.05